Location: Newark
(51.2625°N, 13.3939°E)
Time: 01:14:16
(UTC+00:00)

Transit 2A Rocket - Pass Details

Date: 23 January 2021
Orbit: 594 x 909 km, 66.7° (Epoch: 03 March)

Event Time Altitude Azimuth Distance (km) Brightness Sun altitude
Rises 16:52:46 0° 316° (NW) 3,056 8.5 -11.0°
Reaches altitude 10° 16:56:18 10° 342° (NNW) 2,073 7.3 -11.6°
Maximum altitude 16:58:42 14° 13° (NNE) 1,789 6.6 -11.9°
Enters shadow 17:00:25 12° 37° (NE) 1,898 6.6 -12.2°
